User: anonymous   Login
Location: Unspecified
(0.0000°N, 0.0000°E)
Time: 06:30:18
(UTC+00:00)
Language:

FENGYUN 1C DEB - Orbit

View from above orbital plane
View from above orbital plane
View from above satellite
View from above satellite

Ground track
Ground track

The orbit data is extracted from the following two-line orbital elements,

1 32455U 99025DBT 24193.86461261  .00003296  00000-0  23053-2 0  9992
2 32455 101.7296 246.5348 0258362 340.1349  18.9880 13.84660169854284
Epoch (UTC): 11 July 2024 20:45:02
Eccentricity: 0.0258362
inclination: 101.7296°
perigee height: 758 km
apogee height: 1136 km
right ascension of ascending node: 246.5348°
argument of perigee: 340.1349°
revolutions per day: 13.84660169
mean anomaly at epoch: 18.9880°
orbit number at epoch: 85428

The dashed part of the orbit path shows where the satellite is in the earth's shadow,  

DLR